Lapse_Rate
7.5 7.6 7.7 7.7 7.7 7.6 7.5 7.5 7.4 7.2 7.1 7.0 7.0 7.0 6.9 6.8 6.8 6.7 6.7 6.5 6.4 6.2 6.1 6.0 6.0 6.0 6.0 6.2 6.1 6.3 6.2 6.1
7.4 7.5 7.6 7.7 7.6 7.7 7.6 7.5 7.5 7.4 7.1 7.0 6.9 7.0 6.8 6.8 6.7 6.6 6.5 6.4 6.3 6.1 6.0 6.0 5.9 5.9 5.9 6.0 6.1 6.2 6.2 6.1
7.1 7.4 7.5 7.6 7.6 7.7 7.8 7.6 7.5 7.4 7.3 7.1 6.9 6.9 6.9 6.7 6.7 6.6 6.5 6.3 6.2 6.1 6.1 6.0 6.0 5.9 5.9 5.9 6.0 6.0 6.1 6.1
7.1 7.2 7.4 7.6 7.7 7.8 7.9 7.9 7.6 7.5 7.4 7.2 7.0 6.9 6.8 6.7 6.5 6.5 6.5 6.4 6.3 6.2 6.1 6.1 6.1 6.0 6.0 5.9 6.0 6.0 6.1 6.3
6.6 6.8 7.1 7.2 7.5 7.7 7.9 7.9 7.8 7.5 7.4 7.3 7.1 6.9 6.8 6.7 6.7 6.6 6.4 6.4 6.4 6.4 6.3 6.1 6.0 6.0 5.9 5.9 6.0 6.1 6.0 6.2
6.5 6.6 6.4 6.9 7.2 7.5 7.7 7.9 8.0 7.8 7.5 7.4 7.3 7.1 6.9 6.8 6.7 6.6 6.5 6.3 6.3 6.4 6.4 6.3 6.0 5.9 6.0 6.0 6.0 6.0 6.0 6.3
6.4 6.5 6.5 6.4 6.9 7.3 7.6 7.8 8.0 7.9 7.7 7.5 7.4 7.3 7.0 6.9 6.7 6.6 6.5 6.4 6.3 6.3 6.3 6.3 6.2 6.0 5.9 6.0 6.0 6.1 6.2 6.3
6.7 6.4 6.5 6.6 6.4 7.0 7.3 7.6 7.9 8.0 7.9 7.8 7.5 7.4 7.2 7.0 6.9 6.8 6.7 6.5 6.4 6.3 6.4 6.3 6.3 6.1 6.1 6.1 6.1 6.2 6.4 6.4
7.1 6.8 6.6 6.6 6.6 6.7 7.1 7.5 7.6 7.8 8.0 7.9 7.9 7.5 7.4 7.3 7.1 7.1 6.9 6.8 6.6 6.4 6.4 6.4 6.4 6.3 6.2 6.2 6.3 6.4 6.5 6.4
6.8 7.0 6.9 6.8 6.7 6.6 7.0 7.3 7.5 7.7 7.8 8.0 8.0 7.9 7.5 7.5 7.4 7.2 7.2 7.1 6.9 6.7 6.5 6.4 6.5 6.5 6.4 6.3 6.3 6.5 6.5 6.5
6.5 7.1 7.4 7.1 6.8 6.6 6.7 6.9 7.4 7.6 7.7 7.8 8.0 8.1 8.0 7.8 7.7 7.3 7.3 7.3 7.2 7.1 6.9 6.8 6.5 6.5 6.5 6.5 6.4 6.5 6.6 6.6
6.5 6.8 7.3 7.2 7.3 6.7 6.6 6.7 7.0 7.4 7.6 7.8 7.8 8.0 8.2 8.1 8.0 7.8 7.4 7.5 7.5 7.4 7.3 7.2 7.0 6.8 6.7 6.8 6.8 6.7 6.8 6.8
6.5 6.6 6.9 7.4 7.2 7.5 7.0 6.7 6.9 7.1 7.6 7.6 7.7 7.8 7.8 8.1 8.1 8.0 7.8 7.7 7.7 7.7 7.5 7.4 7.4 7.3 7.3 7.1 7.1 7.2 7.1 7.2
6.3 6.4 6.5 6.9 7.3 7.4 7.3 7.2 7.0 6.7 7.1 7.5 7.8 7.8 8.0 8.0 8.1 8.1 8.0 8.0 7.9 7.8 7.8 7.8 7.6 7.6 7.8 7.4 7.4 7.4 7.5 7.4
6.9 6.3 6.3 6.6 6.9 7.5 7.6 7.7 7.3 7.0 6.8 7.0 7.6 8.0 8.1 8.1 8.0 8.0 7.8 8.1 8.0 7.9 7.9 7.9 7.8 7.7 7.8 7.8 7.7 8.1 7.7 7.6
7.0 7.3 6.4 6.3 6.6 7.0 7.5 7.7 7.7 7.6 7.2 6.9 7.3 7.2 7.5 7.7 7.8 8.0 8.0 7.9 8.1 8.1 8.0 8.0 7.9 7.7 7.9 8.1 8.1 8.1 8.2 8.2
7.1 7.2 7.4 6.5 6.5 6.4 7.0 7.6 7.7 7.7 7.4 6.8 6.9 7.2 6.8 6.9 7.2 7.5 7.5 7.8 7.9 8.0 7.9 7.9 8.0 7.9 7.7 8.1 8.0 8.3 8.1 8.3
7.4 7.7 7.6 7.4 6.7 7.0 6.7 6.9 7.5 7.6 7.6 7.3 6.6 7.1 7.2 7.1 6.9 7.1 7.3 7.2 7.6 7.9 7.8 7.8 7.9 7.9 7.9 7.7 7.9 8.2 8.4 8.2
7.4 7.3 7.7 7.8 7.3 7.0 7.0 7.0 6.9 7.3 7.5 7.5 7.4 7.2 7.4 7.3 7.0 7.1 7.1 7.3 7.4 7.5 7.7 7.7 7.8 7.8 8.0 7.9 7.8 7.9 8.1 8.2
7.3 7.4 7.4 7.6 7.7 6.9 7.0 7.1 7.1 7.0 7.0 7.1 7.2 7.4 7.6 7.3 7.0 7.1 7.1 7.1 7.1 7.2 7.3 7.6 7.6 7.7 7.9 7.9 7.8 7.8 7.8 8.0
Wind_Speed
10 12 15 20 23 22 22 23 21 21 21 19 20 21 22 21 22 21 21 21 18 15 17 22 21 19 20 18 17 18 18 15
11 9 13 12 16 22 22 22 23 21 21 21 20 20 21 21 21 21 21 22 20 19 22 22 21 20 19 18 17 17 15 15
11 11 10 11 12 15 18 19 21 20 19 22 20 15 14 17 19 19 20 23 22 21 22 20 19 18 20 20 19 16 15 14
5 11 12 12 10 11 13 14 14 16 15 15 15 13 14 10 14 16 18 20 21 20 20 18 17 18 18 16 15 16 16 14
5 11 12 12 11 11 10 10 11 13 16 15 14 12 10 11 10 7 13 17 17 17 16 14 15 18 17 15 15 15 16 14
8 11 13 15 13 13 14 12 12 11 13 18 12 10 10 10 11 11 9 11 14 15 13 12 12 15 18 15 15 14 15 16
11 9 11 14 10 13 13 13 13 14 12 16 15 11 10 11 9 13 14 10 10 11 11 10 9 10 12 15 13 14 15 16
10 13 14 17 10 12 13 15 16 15 15 16 19 15 12 11 10 9 12 15 12 11 12 10 9 8 7 12 12 13 15 16
13 14 16 11 11 14 14 17 18 17 16 18 19 19 16 13 9 7 10 14 13 9 7 5 3 4 4 10 11 13 13 14
10 11 15 13 13 13 15 17 16 17 18 18 21 20 20 15 10 8 14 14 11 7 4 4 3 3 2 3 8 10 12 15
19 10 14 15 10 11 13 15 15 16 16 19 22 21 21 17 14 12 15 11 9 5 3 3 3 3 3 3 4 6 10 12
17 15 8 11 9 8 7 7 10 16 15 17 21 23 22 19 14 14 16 7 5 3 4 3 2 4 3 3 2 2 5 8
17 16 15 11 5 8 8 9 9 9 13 16 16 19 21 20 14 12 15 9 9 8 4 5 4 3 3 2 1 3 5 5
16 16 14 10 6 7 7 8 8 8 10 12 16 19 21 21 17 10 13 8 9 9 8 3 3 5 4 2 2 2 3 5
16 15 15 12 14 9 6 3 2 6 7 9 14 23 22 22 20 15 11 9 10 11 11 12 6 5 6 4 2 5 2 2
15 14 13 13 14 12 13 9 9 8 9 9 9 18 18 19 18 17 12 10 11 11 10 10 5 9 2 7 2 3 4 2
13 13 13 13 12 12 9 11 8 6 5 8 10 8 18 19 20 17 12 8 11 11 11 13 10 8 6 3 2 2 1 2
14 13 12 13 12 12 12 12 12 8 6 7 6 8 9 14 18 17 18 10 12 12 12 13 13 12 6 7 8 9 3 3
15 15 14 12 13 12 11 11 12 11 10 7 7 8 8 12 15 14 13 15 14 12 12 13 13 12 13 9 9 10 5 3
12 17 16 13 12 13 11 11 9 9 10 9 8 9 10 13 14 16 18 17 15 12 11 12 12 12 15 13 10 10 8 7
Wind_Direction
136 146 146 144 143 145 145 143 144 143 141 139 138 137 134 133 132 132 129 126 124 115 120 130 130 128 129 126 123 120 115 118
156 136 138 142 144 152 151 151 152 152 150 149 147 144 144 142 138 139 136 134 130 124 130 135 135 136 137 131 129 126 121 122
163 163 141 140 144 152 154 153 155 155 157 157 150 147 150 149 149 148 144 141 139 135 140 144 144 140 139 139 138 132 131 134
161 171 173 149 147 152 154 153 154 154 158 159 153 152 156 161 160 153 149 144 144 145 144 142 142 143 143 147 143 143 144 146
207 195 174 167 173 158 157 158 158 160 164 166 158 163 172 164 168 168 154 144 139 142 147 148 145 152 157 159 156 154 152 155
201 204 201 190 178 169 175 175 180 181 174 169 165 176 181 179 175 181 182 163 149 149 154 160 160 162 172 164 165 163 161 164
196 198 196 199 176 175 176 183 189 191 185 178 170 184 189 187 193 186 188 183 168 156 159 169 174 165 170 168 171 168 170 172
197 205 210 199 190 186 183 185 191 194 194 190 179 178 187 196 197 202 194 190 187 177 171 180 191 185 177 183 179 172 177 178
220 208 201 204 208 196 195 198 193 193 196 190 189 183 180 191 195 191 205 202 192 188 173 167 198 207 211 203 184 177 179 183
272 210 214 206 206 201 203 203 200 198 192 188 192 191 189 185 188 201 201 199 199 191 178 163 192 208 215 197 176 179 180 182
357 221 216 213 222 205 201 209 207 205 198 191 193 195 192 191 194 196 195 193 193 186 191 165 172 191 209 192 188 186 187 184
2 5 272 215 210 226 223 209 210 215 207 204 194 195 194 195 199 192 184 185 195 171 194 187 174 175 187 179 202 217 193 201
359 358 350 357 224 212 212 214 209 209 215 213 201 202 195 195 200 195 192 191 197 194 176 191 215 164 112 60 63 212 212 207
355 349 348 345 328 298 218 214 217 211 199 205 205 205 204 201 199 196 193 193 187 187 186 167 204 183 150 119 228 285 232 211
347 345 346 352 344 314 248 192 197 192 199 207 206 206 208 210 207 202 194 194 198 195 192 192 196 201 208 152 166 218 144 179
342 343 346 351 350 349 335 232 229 220 215 219 209 202 209 215 217 209 205 204 201 198 192 197 161 204 215 231 193 156 189 203
337 346 345 348 352 357 352 351 282 233 219 212 209 202 204 209 211 211 211 207 213 197 195 197 203 206 201 152 167 186 188 141
339 349 347 345 349 353 354 348 334 333 276 218 201 208 210 206 208 209 216 214 211 207 200 199 205 212 198 214 209 209 180 167
338 345 344 351 349 350 349 345 334 329 320 288 228 210 210 210 205 208 213 215 217 210 204 210 207 210 211 214 217 221 199 161
334 335 342 347 353 345 345 344 346 332 321 304 295 231 222 216 211 210 214 218 218 207 206 212 210 216 214 215 219 224 215 199